GW2751 Weather Reports


time (UTC)temp
C
wind
direction
speed
KPH
gust
KPH
rain 1hr
cm
rain 24hr
cm
rain mn
cm
humidity
%
barometer
mb
20260510180142 21 224 14.5 27.4 0.00 0.00 0.00 48 1017.7
20260510174539 20 253 16.1 25.7 0.00 0.00 0.00 45 1017.9
20260510173038 20 286 12.9 32.2 0.00 0.00 0.00 50 1018.1
20260510171546 20 277 16.1 27.4 0.00 0.00 0.00 48 1018.2
20260510170046 20 272 17.7 30.6 0.00 0.00 0.00 51 1018.4
20260510164559 20 230 11.3 29.0 0.00 0.00 0.00 52 1018.5
20260510163034 19 200 14.5 38.6 0.00 0.00 0.00 54 1018.6
20260510161538 19 230 16.1 25.7 0.00 0.00 0.00 55 1018.6
20260510160039 18 276 17.7 32.2 0.00 0.00 0.00 60 1018.7
20260510154537 18 237 17.7 32.2 0.00 0.00 0.00 60 1018.3
20260510153048 18 239 11.3 25.7 0.00 0.00 0.00 61 1018.3
20260510151627 17 226 19.3 32.2 0.00 0.00 0.00 60 1018.5
20260510150042 17 278 17.7 25.7 0.00 0.00 0.00 62 1018.5
20260510144537 16 232 16.1 27.4 0.00 0.00 0.00 62 1018.2
20260510143040 16 245 17.7 30.6 0.00 0.00 0.00 63 1018.2
20260510141540 16 240 17.7 33.8 0.00 0.00 0.00 64 1018.1
20260510140037 16 222 19.3 32.2 0.00 0.00 0.00 66 1018.0
20260510134537 15 217 16.1 32.2 0.00 0.00 0.00 70 1018.0
20260510133036 15 232 16.1 27.4 0.00 0.00 0.00 71 1018.0
20260510131538 15 239 14.5 24.1 0.00 0.00 0.00 73 1018.1
20260510124548 13 224 11.3 22.5 0.00 0.00 0.00 81 1018.0
20260510123038 12 230 14.5 20.9 0.00 0.00 0.00 86 1017.9
20260510121539 12 254 11.3 20.9 0.00 0.00 0.00 89 1017.9
20260510120043 11 224 8.0 12.9 0.00 0.00 0.00 91 1017.4
20260510114538 10 237 6.4 14.5 0.00 0.00 0.00 92 1017.4
20260510113040 9 185 1.6 4.8 0.00 0.00 0.00 92 1017.1
20260510111534 8 0 0.0 4.8 0.00 0.00 0.00 92 1017.0
20260510110041 8 231 3.2 8.0 0.00 0.00 0.00 91 1016.9
20260510104548 7 0 1.6 6.4 0.00 0.00 0.00 91 1016.6
20260510103040 7 233 3.2 8.0 0.00 0.00 0.00 91 1016.5
20260510101900 8 269 0.0 6.4 0.00 0.00 0.00 91 1016.2
20260510101540 8 269 0.0 6.4 0.00 0.00 0.00 91 1016.2
20260510100037 8 214 1.6 8.0 0.00 0.00 0.00 91 1016.1
20260510094536 8 208 3.2 8.0 0.00 0.00 0.00 91 1016.1
20260510093037 7 218 3.2 8.0 0.00 0.00 0.00 91 1016.0
20260510091542 7 220 4.8 9.7 0.00 0.00 0.00 91 1015.7
20260510090045 7 226 3.2 8.0 0.00 0.00 0.00 91 1015.5
20260510084539 7 239 3.2 9.7 0.00 0.00 0.00 90 1015.4
20260510083052 7 245 3.2 8.0 0.00 0.00 0.00 90 1015.4
20260510081538 7 214 4.8 8.0 0.00 0.00 0.00 90 1015.3
20260510080429 8 222 1.6 8.0 0.00 0.00 0.00 90 1015.2
20260510074535 8 212 4.8 8.0 0.00 0.00 0.00 90 1015.0
20260510073107 8 240 3.2 6.4 0.00 0.00 0.00 90 1015.0
20260510071911 8 241 3.2 6.4 0.00 0.00 0.00 90 1015.0
20260510070039 8 256 4.8 8.0 0.00 0.00 0.00 90 1015.0
20260510064540 8 247 4.8 8.0 0.00 0.00 0.00 89 1015.0
20260510063045 8 257 4.8 11.3 0.00 0.00 0.00 89 1015.0
20260510061732 8 232 4.8 8.0 0.00 0.00 0.00 89 1014.9
20260510060042 7 258 3.2 6.4 0.00 0.00 0.00 88 1014.8
20260510054938 7 220 0.0 6.4 0.00 0.00 0.00 88 1014.9
20260510053038 7 250 3.2 4.8 0.00 0.00 0.00 88 1014.9
20260510051614 8 0 0.0 4.8 0.00 0.00 0.00 87 1015.1
20260510043109 8 247 4.8 8.0 0.00 0.00 0.00 86 1015.0
20260510041737 8 245 3.2 4.8 0.00 0.00 0.00 85 1015.0
20260510040142 8 241 3.2 6.4 0.00 0.00 0.00 85 1015.0
20260510034610 9 256 1.6 6.4 0.00 0.00 0.00 84 1014.7
20260510033045 9 254 4.8 9.7 0.00 0.00 0.00 84 1014.7
20260510023037 10 251 3.2 6.4 0.00 0.00 0.00 79 1014.8
20260510021537 10 235 4.8 8.0 0.00 0.00 0.00 77 1014.5
20260510020045 10 231 0.0 4.8 0.00 0.00 0.00 76 1014.4
20260510014543 11 221 3.2 6.4 0.00 0.00 0.00 76 1014.0
20260510013040 11 222 3.2 4.8 0.00 0.00 0.00 74 1013.6
20260510011537 12 216 3.2 6.4 0.00 0.00 0.00 72 1013.5
20260510010039 12 0 0.0 4.8 0.00 0.00 0.00 68 1013.2
20260510004554 13 222 0.0 1.6 0.00 0.00 0.00 66 1013.2
20260510000038 15 233 1.6 12.9 0.00 0.00 0.00 61 1013.0
20260509234543 16 224 4.8 16.1 0.00 0.00 0.00 60 1012.8
20260509233038 16 211 6.4 16.1 0.00 0.00 0.00 59 1012.8
20260509231537 16 254 8.0 22.5 0.00 0.00 0.00 59 1012.6
20260509230052 16 256 11.3 24.1 0.00 0.00 0.00 58 1012.5
20260509224545 16 245 11.3 22.5 0.00 0.00 0.00 57 1012.5
20260509223047 16 267 12.9 22.5 0.00 0.00 0.00 57 1012.5
20260509193132 16 247 11.3 27.4 0.00 0.00 0.00 54 1011.8
20260509191539 16 239 14.5 27.4 0.00 0.00 0.00 54 1011.8
20260509190215 16 207 12.9 30.6 0.00 0.00 0.00 53 1011.8
20260509184545 16 251 11.3 20.9 0.00 0.00 0.00 53 1011.8
20260509183039 16 233 12.9 24.1 0.00 0.00 0.00 49 1011.8
20260509181545 17 205 14.5 27.4 0.00 0.00 0.00 52 1011.8